Time,TemperatureF,DewpointF,PressureIn,WindDirection,WindDirectionDegrees,WindSpeedMPH,WindSpeedGustMPH,Humidity,HourlyPrecipIn,Conditions,Clouds,dailyrainin,SolarRadiationWatts/m^2,SoftwareType,DateUTC
2013-11-27 00:02:00,21.0,16.0,-100.00,North,2,2.0,5.0,81,0.00,,,0.00,0.000000,,2013-11-27 07:02:00,
2013-11-27 00:11:00,21.0,16.0,-100.00,North,2,2.0,5.0,81,0.00,,,0.00,0.000000,,2013-11-27 07:11:00,
2013-11-27 00:21:00,21.0,16.0,-100.00,North,2,2.0,5.0,81,0.00,,,0.00,0.000000,,2013-11-27 07:21:00,
2013-11-27 00:52:00,21.0,16.0,-100.00,North,358,1.0,5.0,81,0.00,,,0.00,0.000000,,2013-11-27 07:52:00,
2013-11-27 01:02:00,21.0,16.0,-100.00,North,358,1.0,5.0,81,0.00,,,0.00,0.000000,,2013-11-27 08:02:00,
2013-11-27 01:11:00,21.0,16.0,-100.00,North,358,1.0,5.0,81,0.00,,,0.00,0.000000,,2013-11-27 08:11:00,
2013-11-27 01:21:00,21.0,16.0,-100.00,North,358,1.0,5.0,81,0.00,,,0.00,0.000000,,2013-11-27 08:21:00,
2013-11-27 01:52:00,20.0,16.0,-100.00,North,0,0.0,5.0,86,0.00,,,0.00,0.000000,,2013-11-27 08:52:00,
2013-11-27 02:02:00,20.0,16.0,-100.00,North,0,0.0,5.0,86,0.00,,,0.00,0.000000,,2013-11-27 09:02:00,
2013-11-27 02:11:00,20.0,16.0,-100.00,North,0,0.0,5.0,86,0.00,,,0.00,0.000000,,2013-11-27 09:11:00,
2013-11-27 02:21:00,20.0,16.0,-100.00,North,0,0.0,5.0,86,0.00,,,0.00,0.000000,,2013-11-27 09:21:00,
2013-11-27 02:54:00,20.0,17.0,-100.00,North,6,2.0,4.0,87,0.00,,,0.00,0.000000,,2013-11-27 09:54:00,
2013-11-27 03:03:00,20.0,17.0,-100.00,North,6,2.0,4.0,87,0.00,,,0.00,0.000000,,2013-11-27 10:03:00,
2013-11-27 03:12:00,20.0,17.0,-100.00,North,6,2.0,4.0,87,0.00,,,0.00,0.000000,,2013-11-27 10:12:00,
2013-11-27 03:22:00,20.0,17.0,-100.00,North,6,2.0,4.0,87,0.00,,,0.00,0.000000,,2013-11-27 10:22:00,
2013-11-27 03:53:00,21.0,17.0,-100.00,North,9,0.0,5.0,85,0.00,,,0.00,0.000000,,2013-11-27 10:53:00,
2013-11-27 04:02:00,21.0,17.0,-100.00,North,9,0.0,5.0,85,0.00,,,0.00,0.000000,,2013-11-27 11:02:00,
2013-11-27 04:12:00,21.0,17.0,-100.00,North,9,0.0,5.0,85,0.00,,,0.00,0.000000,,2013-11-27 11:12:00,
2013-11-27 04:22:00,21.0,17.0,-100.00,North,9,0.0,5.0,85,0.00,,,0.00,0.000000,,2013-11-27 11:22:00,
2013-11-27 04:53:00,19.0,16.0,-100.00,North,9,1.0,5.0,87,0.00,,,0.00,0.000000,,2013-11-27 11:53:00,
2013-11-27 05:02:00,19.0,16.0,-100.00,North,9,1.0,5.0,87,0.00,,,0.00,0.000000,,2013-11-27 12:02:00,
2013-11-27 05:11:00,19.0,16.0,-100.00,North,9,1.0,5.0,87,0.00,,,0.00,0.000000,,2013-11-27 12:11:00,
2013-11-27 05:21:00,19.0,16.0,-100.00,North,9,1.0,5.0,87,0.00,,,0.00,0.000000,,2013-11-27 12:21:00,
2013-11-27 05:52:00,22.0,19.0,-100.00,NNE,13,1.0,4.0,87,0.00,,,-99.99,0.000000,,2013-11-27 12:52:00,
2013-11-27 06:02:00,22.0,19.0,-100.00,NNE,13,1.0,4.0,87,0.00,,,-99.99,0.000000,,2013-11-27 13:02:00,
2013-11-27 06:11:00,22.0,19.0,-100.00,NNE,13,1.0,4.0,87,0.00,,,-99.99,0.000000,,2013-11-27 13:11:00,
2013-11-27 06:22:00,22.0,19.0,-100.00,NNE,13,1.0,4.0,87,0.00,,,-99.99,0.000000,,2013-11-27 13:22:00,
2013-11-27 06:52:00,23.0,19.0,-100.00,North,7,2.0,4.0,85,0.00,,,0.00,0.000000,,2013-11-27 13:52:00,
2013-11-27 07:02:00,23.0,19.0,-100.00,North,7,2.0,4.0,85,0.00,,,0.00,0.000000,,2013-11-27 14:02:00,
2013-11-27 07:11:00,23.0,19.0,-100.00,North,7,2.0,4.0,85,0.00,,,0.00,0.000000,,2013-11-27 14:11:00,
2013-11-27 07:21:00,23.0,19.0,-100.00,North,7,2.0,4.0,85,0.00,,,0.00,0.000000,,2013-11-27 14:21:00,
2013-11-27 07:53:00,24.0,18.0,-100.00,North,356,1.0,4.0,79,0.00,,,0.00,0.000000,,2013-11-27 14:53:00,
2013-11-27 08:02:00,24.0,18.0,-100.00,North,356,1.0,4.0,79,0.00,,,0.00,0.000000,,2013-11-27 15:02:00,
2013-11-27 08:11:00,24.0,18.0,-100.00,North,356,1.0,4.0,79,0.00,,,0.00,0.000000,,2013-11-27 15:11:00,
2013-11-27 08:21:00,24.0,18.0,-100.00,North,356,1.0,4.0,79,0.00,,,0.00,0.000000,,2013-11-27 15:21:00,
2013-11-27 08:23:00,29.0,22.0,-100.00,North,358,3.0,6.0,74,0.00,,,0.00,33.000000,,2013-11-27 15:23:00,
2013-11-27 08:53:00,29.0,22.0,-100.00,North,358,3.0,6.0,74,0.00,,,0.00,33.000000,,2013-11-27 15:53:00,
2013-11-27 09:04:00,29.0,22.0,-100.00,North,358,3.0,6.0,74,0.00,,,0.00,33.000000,,2013-11-27 16:04:00,
2013-11-27 10:12:00,35.0,23.0,-100.00,North,7,0.0,5.0,60,0.00,,,0.00,134.000000,,2013-11-27 17:12:00,
2013-11-27 10:22:00,35.0,23.0,-100.00,North,7,0.0,5.0,60,0.00,,,0.00,134.000000,,2013-11-27 17:22:00,
2013-11-27 12:21:00,47.0,18.0,-100.00,South,183,2.0,7.0,31,-99.99,,,0.00,419.000000,,2013-11-27 19:21:00,
2013-11-27 13:22:00,50.0,17.0,-100.00,SSW,192,2.0,6.0,27,0.00,,,0.00,553.000000,,2013-11-27 20:22:00,
2013-11-27 13:52:00,50.0,17.0,-100.00,SSW,200,4.0,8.0,27,0.00,,,0.00,545.000000,,2013-11-27 20:52:00,
2013-11-27 14:02:00,50.0,17.0,-100.00,SSW,200,4.0,8.0,27,0.00,,,0.00,545.000000,,2013-11-27 21:02:00,
2013-11-27 14:11:00,50.0,17.0,-100.00,SSW,200,4.0,8.0,27,0.00,,,0.00,545.000000,,2013-11-27 21:11:00,
2013-11-27 14:21:00,50.0,17.0,-100.00,SSW,200,4.0,8.0,27,0.00,,,0.00,545.000000,,2013-11-27 21:21:00,
2013-11-27 14:23:00,50.0,17.0,-100.00,South,181,2.0,8.0,27,0.00,,,0.00,462.000000,,2013-11-27 21:23:00,
2013-11-27 14:53:00,50.0,17.0,-100.00,South,181,2.0,8.0,27,0.00,,,0.00,462.000000,,2013-11-27 21:53:00,
2013-11-27 15:03:00,50.0,17.0,-100.00,South,181,2.0,8.0,27,0.00,,,0.00,462.000000,,2013-11-27 22:03:00,
2013-11-27 15:13:00,50.0,17.0,-100.00,South,181,2.0,8.0,27,0.00,,,0.00,462.000000,,2013-11-27 22:13:00,
2013-11-27 15:52:00,49.0,16.0,-100.00,South,177,1.0,7.0,27,0.00,,,0.00,292.000000,,2013-11-27 22:52:00,
2013-11-27 16:02:00,49.0,16.0,-100.00,South,177,1.0,7.0,27,0.00,,,0.00,292.000000,,2013-11-27 23:02:00,
2013-11-27 16:12:00,49.0,16.0,-100.00,South,177,1.0,7.0,27,0.00,,,0.00,292.000000,,2013-11-27 23:12:00,
2013-11-27 16:21:00,49.0,16.0,-100.00,South,177,1.0,7.0,27,0.00,,,0.00,292.000000,,2013-11-27 23:21:00,
2013-11-27 16:52:00,41.0,14.0,-100.00,WNW,285,0.0,4.0,33,0.00,,,0.00,97.000000,,2013-11-27 23:52:00,
2013-11-27 17:02:00,41.0,14.0,-100.00,WNW,285,0.0,4.0,33,0.00,,,0.00,97.000000,,2013-11-28 00:02:00,
2013-11-27 17:12:00,41.0,14.0,-100.00,WNW,285,0.0,4.0,33,0.00,,,0.00,97.000000,,2013-11-28 00:12:00,
2013-11-27 17:21:00,41.0,14.0,-100.00,WNW,285,0.0,4.0,33,0.00,,,0.00,97.000000,,2013-11-28 00:21:00,
2013-11-27 18:21:00,30.0,18.0,-100.00,North,351,0.0,4.0,60,0.00,,,0.00,7.000000,,2013-11-28 01:21:00,
2013-11-27 18:52:00,25.0,19.0,-100.00,NNW,336,1.0,3.0,76,0.00,,,0.00,0.000000,,2013-11-28 01:52:00,
2013-11-27 19:01:00,25.0,19.0,-100.00,NNW,336,1.0,3.0,76,0.00,,,0.00,0.000000,,2013-11-28 02:01:00,
2013-11-27 19:21:00,25.0,19.0,-100.00,NNW,336,1.0,3.0,76,0.00,,,0.00,0.000000,,2013-11-28 02:21:00,
2013-11-27 20:11:00,25.0,20.0,-100.00,NNW,330,0.0,3.0,80,0.00,,,0.00,0.000000,,2013-11-28 03:11:00,
2013-11-27 20:21:00,25.0,20.0,-100.00,NNW,330,0.0,3.0,80,0.00,,,0.00,0.000000,,2013-11-28 03:21:00,
2013-11-27 20:23:00,24.0,20.0,-100.00,NNW,341,2.0,4.0,83,0.00,,,0.00,0.000000,,2013-11-28 03:23:00,
2013-11-27 20:53:00,24.0,20.0,-100.00,NNW,341,2.0,4.0,83,0.00,,,0.00,0.000000,,2013-11-28 03:53:00,
2013-11-27 21:04:00,24.0,20.0,-100.00,NNW,341,2.0,4.0,83,0.00,,,0.00,0.000000,,2013-11-28 04:04:00,
2013-11-27 21:12:00,24.0,20.0,-100.00,NNW,341,2.0,4.0,83,0.00,,,0.00,0.000000,,2013-11-28 04:12:00,
2013-11-27 21:52:00,23.0,18.0,-100.00,NNW,347,2.0,4.0,82,0.00,,,0.00,0.000000,,2013-11-28 04:52:00,
2013-11-27 22:02:00,23.0,18.0,-100.00,NNW,347,2.0,4.0,82,0.00,,,0.00,0.000000,,2013-11-28 05:02:00,
2013-11-27 22:12:00,23.0,18.0,-100.00,NNW,347,2.0,4.0,82,0.00,,,0.00,0.000000,,2013-11-28 05:12:00,
2013-11-27 22:22:00,23.0,18.0,-100.00,NNW,347,2.0,4.0,82,0.00,,,0.00,0.000000,,2013-11-28 05:22:00,
2013-11-27 22:53:00,22.0,17.0,-100.00,North,354,0.0,4.0,82,0.00,,,0.00,0.000000,,2013-11-28 05:53:00,
2013-11-27 23:02:00,22.0,17.0,-100.00,North,354,0.0,4.0,82,0.00,,,0.00,0.000000,,2013-11-28 06:02:00,
2013-11-27 23:12:00,22.0,17.0,-100.00,North,354,0.0,4.0,82,0.00,,,0.00,0.000000,,2013-11-28 06:12:00,
2013-11-27 23:21:00,22.0,17.0,-100.00,North,354,0.0,4.0,82,0.00,,,0.00,0.000000,,2013-11-28 06:21:00,
2013-11-27 23:52:00,24.0,18.0,-100.00,North,0,1.0,5.0,77,0.00,,,0.00,0.000000,,2013-11-28 06:52:00,